[[{"header":{"parameterUnit":"m.s-1","parameterCategory":1,"la1":30.2991,"la2":30.254,"lo1":-89.0895,"lo2":-89.0444,"dy":0.0017,"dx":0.0017,"nx":28,"ny":28,"refTime":"2026-02-01T03:00:00:Z","depth":0,"parameterNumber":2,"parameterNumberName":"U-component_of_WINDS"},"data":[0,0,0,0,0,0,0,0,0,0,0,0,0,0,0,0,0,0,0,0,0,0,0,0,0,0,0,0,0,0,0,0,0,0,0,0,0,0,0,0,0,0,0,0,0,0,0,0,0,0,0,0,0,0,0,0,0,0,2.5476,2.5476,0,2.5475,2.5475,2.5475,2.5431,2.5429,2.5428,2.5427,2.5426,2.5427,2.5428,0,0,0,0,0,0,0,0,0,0,0,0,0,2.5441,2.5442,2.5476,2.5476,2.5476,2.5475,2.5475,2.5475,2.5431,2.5429,2.5428,2.5427,2.5426,2.5427,2.5428,0,0,0,0,0,0,0,0,0,0,0,0,0,2.545,2.5442,2.5476,2.5454,2.5452,2.5475,2.5475,2.5475,2.5431,2.5429,2.5428,2.5426,2.5425,2.5427,2.5429,2.5472,0,0,2.5433,2.5434,0,0,0,0,0,0,0,0,2.5449,2.5451,2.5457,2.5455,2.5453,2.5451,2.5462,2.5474,2.5432,2.5439,2.5427,2.5425,2.5436,2.5436,2.544,2.5472,2.5472,2.5433,2.5434,2.5435,2.5435,0,0,0,0,0,0,0,2.5449,2.5451,2.5475,2.5457,2.5455,2.5444,2.5444,2.5464,2.5447,2.5438,2.5435,2.5435,2.5434,2.5439,2.544,2.5472,2.5433,2.5435,2.5436,2.5436,2.5543,2.5545,0,0,0,0,0,0,2.5451,2.5451,2.5475,2.5475,2.5447,2.5446,2.5446,2.5453,2.5447,2.5444,2.5437,2.5433,2.5437,2.5438,2.5439,2.5492,2.5435,2.5436,2.5437,2.5541,2.5543,2.5545,0,0,0,0,0,0,2.5451,2.5454,2.5475,2.5462,2.5464,2.5449,2.5458,2.5454,2.5458,2.5446,2.5443,2.5444,2.5436,2.5437,2.5465,2.5491,2.5437,2.5439,2.5539,2.5542,2.5544,2.5596,0,0,0,0,0,0,2.545,2.5454,2.547,2.5463,2.5465,2.5501,2.5459,2.5456,2.5461,2.5457,2.5452,2.5449,2.5434,2.5463,2.5467,2.5492,2.544,2.5536,2.554,2.5543,2.5592,2.56,2.5607,0,0,0,0,0,2.5449,2.5484,2.5471,2.5474,2.5485,2.5502,2.5503,2.5485,2.5463,2.548,2.5472,2.5449,2.5488,2.5466,2.547,2.5496,2.5535,2.5539,2.5543,2.5588,2.5599,2.5607,0,0,0,0,0,0,2.5494,2.5483,2.5468,2.5502,2.5504,2.5495,2.5515,2.5496,2.5504,2.55,2.5477,2.5476,2.5508,2.5505,2.5481,2.554,2.5507,2.5513,2.554,2.555,2.5558,2.5558,2.5441,0,0,0,0,0,2.5508,2.5523,2.5512,2.5543,2.5545,2.553,2.5537,2.5523,2.5524,2.5524,2.5518,2.552,2.5532,2.5541,2.5551,2.5591,2.559,2.5611,2.5619,2.5626,2.5631,2.5653,2.5663,2.5559,2.5559,2.5559,0,0,2.5537,2.5532,2.5543,2.5552,2.5552,2.5569,2.5531,2.5549,2.5562,2.5527,2.5553,2.5549,2.5549,2.5584,2.5599,2.5582,2.5659,2.5631,2.5636,2.5638,2.5658,2.5668,2.5677,2.5562,2.5562,2.5561,0,0,2.5598,2.5596,2.5622,2.5623,2.5623,2.5613,2.562,2.5614,2.5611,2.5637,2.5611,2.5626,2.5648,2.565,2.5653,2.5718,2.5698,2.5722,2.5763,2.5785,2.5793,2.58,2.5824,2.5833,2.5727,2.5727,2.5727,0,2.5634,2.5657,2.5638,2.5659,2.5665,2.5635,2.5662,2.5663,2.5667,2.5672,2.5653,2.5681,2.5679,2.5715,2.5731,2.5734,2.5742,2.5722,2.5793,2.58,2.5807,2.583,2.5839,2.573,2.573,2.5729,2.5729,0,2.5702,2.5719,2.5741,2.5746,2.5754,2.5778,2.5763,2.5773,2.5759,2.5752,2.578,2.5777,2.5787,2.5795,2.5781,2.5829,2.5819,2.5797,2.5764,2.582,2.5841,2.585,2.5734,2.5733,2.5732,2.5732,0,0,2.579,2.5786,2.5794,2.5797,2.5796,2.5809,2.5833,2.5843,2.5853,2.5857,2.5877,2.5897,2.5878,2.5883,2.5869,2.5888,2.5942,2.5865,2.5864,2.588,2.5996,2.6013,2.6023,2.5929,2.593,2.5931,2.5996,0,2.5851,2.589,2.5874,2.5916,2.5932,2.5905,2.5926,2.5928,2.5922,2.5935,2.5929,2.5944,2.5917,2.592,2.5938,2.5931,2.5965,2.5926,2.5947,2.5948,2.5949,2.6034,2.6051,2.6112,2.6004,2.6006,2.6007,0,2.5925,2.5934,2.5977,2.5975,2.5981,2.6,2.601,2.6023,2.6025,2.602,2.6026,2.6008,2.6032,2.6,2.6033,2.6007,2.6015,2.6014,2.6016,2.6017,2.5981,2.6038,2.6131,2.6141,2.6019,2.6018,2.6017,0,2.5987,2.6009,2.6038,2.6041,2.6039,2.6053,2.6053,2.6054,2.6062,2.6071,2.6076,2.6087,2.6093,2.6102,2.6089,2.6066,2.6125,2.6091,2.6122,2.6122,2.6135,2.6135,2.6231,2.6139,2.6139,2.6139,2.6139,0,2.6056,2.6084,2.6066,2.6084,2.6115,2.6097,2.6128,2.6125,2.6126,2.6144,2.6121,2.6138,2.6119,2.6134,2.6124,2.6154,2.6157,2.6154,2.6151,2.6156,2.6157,2.6161,2.6157,2.6142,2.6141,2.6141,2.614,0,2.613,2.6119,2.6149,2.6145,2.6145,2.6168,2.6165,2.6182,2.6175,2.6198,2.6202,2.6192,2.6209,2.6197,2.6213,2.6207,2.6246,2.6237,2.6246,2.6244,2.6275,2.6273,2.6379,2.6392,2.6291,2.6292,2.6293,0,2.6175,2.6196,2.6195,2.6205,2.6207,2.6224,2.6232,2.6216,2.6226,2.6232,2.6248,2.6264,2.6275,2.6304,2.6298,2.6312,2.6303,2.6339,2.6305,2.631,2.6305,2.6304,2.6307,2.6346,2.6347,2.6348,2.6349,0,2.6256,2.625,2.6264,2.6276,2.6287,2.6295,2.6302,2.6312,2.6296,2.6308,2.6326,2.6335,2.6353,2.6369,2.6381,2.6381,2.6363,2.636,2.6368,2.6374,2.6379,2.6378,2.6266,2.6358,2.6357,2.6356,2.6356,2.6355,2.6318,2.6336,2.6339,2.6355,2.6358,2.6366,2.6382,2.6378,2.6392,2.6406,2.6396,2.6418,2.6421,2.6435,2.6438,2.6455,2.644,2.6451,2.6454,2.6457,2.6463,2.6376,2.6457,2.6456,2.6456,2.6456,2.6456,0,2.6399,2.64,2.6415,2.6426,2.6439,2.6421,2.6428,2.644,2.646,2.6465,2.6477,2.6499,2.6514,2.6511,2.6525,2.654,2.6532,2.6544,2.6543,2.6544,2.6474,2.6466,2.655,2.655,2.655,2.655,2.655,2.655,2.6443,2.6473,2.6468,2.65,2.6501,2.6522,2.6528,2.6535,2.6539,2.6564,2.6578,2.6575,2.6577,2.6592,2.6606,2.6605,2.6611,2.6627,2.6623,2.6558,2.6548,2.654,2.6532,2.6628,2.6629,2.6691,2.6691,2.6692]},{"header":{"parameterUnit":"m.s-1","parameterCategory":1,"la1":30.2991,"la2":30.254,"lo1":-89.0895,"lo2":-89.0444,"dy":0.0017,"dx":0.0017,"nx":28,"ny":28,"refTime":"2026-02-01T03:00:00:Z","depth":0,"parameterNumber":3,"parameterNumberName":"V-component_of_WINDS"},"data":[0,0,0,0,0,0,0,0,0,0,0,0,0,0,0,0,0,0,0,0,0,0,0,0,0,0,0,0,0,0,0,0,0,0,0,0,0,0,0,0,0,0,0,0,0,0,0,0,0,0,0,0,0,0,0,0,0,0,-3.003,-3.0032,0,-3.0177,-3.0179,-3.018,-3.0233,-3.0232,-3.0232,-3.0231,-3.038,-3.0384,-3.0389,0,0,0,0,0,0,0,0,0,0,0,0,0,-2.9796,-2.98,-3.003,-3.0032,-3.0034,-3.0177,-3.0179,-3.0181,-3.0233,-3.0232,-3.0232,-3.0231,-3.0378,-3.0384,-3.0389,0,0,0,0,0,0,0,0,0,0,0,0,0,-2.9915,-2.9801,-3.003,-3.0077,-3.0083,-3.0176,-3.0179,-3.0181,-3.0233,-3.0232,-3.0232,-3.0231,-3.0377,-3.0383,-3.039,-3.0446,0,0,-3.041,-3.0413,0,0,0,0,0,0,0,0,-2.9908,-2.9924,-3.0068,-3.0074,-3.0081,-3.0186,-3.015,-3.027,-3.0233,-3.0176,-3.0231,-3.0231,-3.0316,-3.0327,-3.0357,-3.0453,-3.0459,-3.0411,-3.0415,-3.0417,-3.0419,0,0,0,0,0,0,0,-2.99,-2.9918,-3.0088,-3.007,-3.0078,-3.0091,-3.0107,-3.0173,-3.0248,-3.0181,-3.0185,-3.0202,-3.0319,-3.035,-3.036,-3.0462,-3.041,-3.0416,-3.042,-3.0423,-3.0615,-3.0616,0,0,0,0,0,0,-2.9884,-2.9911,-3.0084,-3.0093,-2.9991,-3.0096,-3.0114,-3.0153,-3.0248,-3.0262,-3.0202,-3.0204,-3.0339,-3.0353,-3.0366,-3.044,-3.0417,-3.0424,-3.0427,-3.0613,-3.0615,-3.0616,0,0,0,0,0,0,-2.9879,-2.9899,-3.0078,-3.0003,-3.0027,-3.0101,-3.0144,-3.0156,-3.0187,-3.0264,-3.0278,-3.022,-3.0339,-3.0356,-3.0427,-3.0446,-3.0427,-3.0433,-3.0612,-3.0614,-3.0615,-3.0588,0,0,0,0,0,0,-2.9872,-2.9897,-2.9919,-3.0003,-3.003,-3.0136,-3.0145,-3.016,-3.0199,-3.0202,-3.0284,-3.0297,-3.034,-3.0416,-3.0433,-3.0455,-3.0438,-3.0611,-3.0613,-3.0615,-3.0587,-3.0588,-3.0589,0,0,0,0,0,-2.9863,-2.9904,-2.9919,-2.994,-3.0059,-3.0137,-3.0152,-3.0201,-3.02,-3.0223,-3.0273,-3.0295,-3.0441,-3.0423,-3.0442,-3.0466,-3.061,-3.0612,-3.0615,-3.0587,-3.0588,-3.0589,0,0,0,0,0,0,-2.9819,-2.9916,-2.9934,-3.0003,-3.0062,-3.0145,-3.0176,-3.02,-3.0259,-3.0259,-3.0317,-3.0335,-3.0401,-3.044,-3.0419,-3.0527,-3.0527,-3.0533,-3.0499,-3.0501,-3.0502,-3.0491,-3.0443,0,0,0,0,0,-2.9817,-2.9872,-2.9954,-3.0007,-3.0036,-3.0101,-3.0136,-3.0168,-3.0231,-3.0255,-3.031,-3.0369,-3.0429,-3.0467,-3.0526,-3.0593,-3.0613,-3.0619,-3.062,-3.0621,-3.0626,-3.0667,-3.0671,-3.0624,-3.0624,-3.0624,0,0,-2.9814,-2.9874,-2.9905,-3.0,-3.0049,-3.0105,-3.0121,-3.0178,-3.0221,-3.0264,-3.0334,-3.0376,-3.0446,-3.0516,-3.0549,-3.0551,-3.0643,-3.0624,-3.0623,-3.0629,-3.067,-3.0674,-3.0678,-3.0626,-3.0625,-3.0625,0,0,-2.9838,-2.9888,-2.9939,-2.9989,-3.0063,-3.0106,-3.0118,-3.0199,-3.023,-3.0301,-3.0335,-3.0386,-3.0487,-3.0537,-3.0575,-3.062,-3.0643,-3.0637,-3.0642,-3.0681,-3.0685,-3.0689,-3.0706,-3.0712,-3.0642,-3.0642,-3.0642,0,-2.9825,-2.9911,-2.9962,-3.0019,-3.0061,-3.0104,-3.0156,-3.0201,-3.0291,-3.0318,-3.0319,-3.0449,-3.0499,-3.0582,-3.0593,-3.0622,-3.0638,-3.0628,-3.068,-3.0684,-3.0689,-3.0706,-3.0713,-3.0641,-3.0641,-3.0641,-3.0641,0,-2.9892,-2.9951,-2.9983,-3.007,-3.0115,-3.0169,-3.023,-3.0269,-3.0298,-3.0342,-3.0415,-3.0477,-3.055,-3.0572,-3.06,-3.066,-3.0659,-3.0669,-3.067,-3.0691,-3.0709,-3.0716,-3.0639,-3.0639,-3.064,-3.064,0,0,-2.9891,-3.0007,-3.0018,-3.0059,-3.0146,-3.0192,-3.0249,-3.0322,-3.0356,-3.0416,-3.0466,-3.0552,-3.0563,-3.0606,-3.064,-3.0675,-3.0709,-3.0681,-3.0684,-3.0686,-3.0781,-3.0773,-3.078,-3.0724,-3.0726,-3.0727,-3.0775,0,-2.9927,-3.0031,-3.0081,-3.0163,-3.022,-3.0262,-3.0312,-3.0371,-3.0413,-3.0467,-3.0514,-3.0574,-3.0583,-3.061,-3.0646,-3.0697,-3.0729,-3.0694,-3.0772,-3.0775,-3.0755,-3.0789,-3.0781,-3.0823,-3.0782,-3.0783,-3.0784,0,-2.9983,-3.0045,-3.0134,-3.0216,-3.0241,-3.0285,-3.0357,-3.0408,-3.0476,-3.0504,-3.0554,-3.0588,-3.065,-3.0646,-3.0734,-3.0709,-3.0744,-3.0774,-3.0777,-3.0787,-3.0781,-3.0801,-3.0838,-3.0845,-3.0795,-3.0794,-3.0794,0,-2.9975,-3.0081,-3.0149,-3.0182,-3.0279,-3.0309,-3.0351,-3.0418,-3.0459,-3.0522,-3.055,-3.0618,-3.0656,-3.0709,-3.076,-3.0752,-3.0844,-3.0844,-3.087,-3.0869,-3.0888,-3.0886,-3.0932,-3.0908,-3.0908,-3.0908,-3.0908,0,-3.0011,-3.0064,-3.0147,-3.0189,-3.025,-3.0306,-3.0365,-3.041,-3.047,-3.0521,-3.0561,-3.0609,-3.0674,-3.073,-3.077,-3.0838,-3.0854,-3.088,-3.089,-3.0877,-3.0874,-3.0901,-3.09,-3.091,-3.0909,-3.0909,-3.0909,0,-3.0013,-3.0071,-3.0148,-3.0233,-3.0256,-3.0298,-3.0372,-3.0414,-3.0459,-3.0524,-3.0542,-3.0613,-3.0681,-3.0738,-3.0827,-3.0854,-3.0925,-3.0937,-3.0903,-3.0909,-3.0933,-3.093,-3.0999,-3.1012,-3.0977,-3.0977,-3.0978,0,-3.0033,-3.0075,-3.0166,-3.0204,-3.0246,-3.0306,-3.0349,-3.0406,-3.0449,-3.0531,-3.0564,-3.0635,-3.0696,-3.0803,-3.0862,-3.0931,-3.0945,-3.0965,-3.0956,-3.0942,-3.0948,-3.0945,-3.0951,-3.0965,-3.0965,-3.0966,-3.0966,0,-3.0062,-3.0089,-3.015,-3.0222,-3.0272,-3.0331,-3.0391,-3.0419,-3.0488,-3.0535,-3.0606,-3.0652,-3.0745,-3.0815,-3.0891,-3.0934,-3.0962,-3.0968,-3.0978,-3.0966,-3.0945,-3.0958,-3.0906,-3.0966,-3.0966,-3.0966,-3.0966,-3.0966,-3.0075,-3.0116,-3.0187,-3.0254,-3.0305,-3.0361,-3.0406,-3.0457,-3.0518,-3.0598,-3.0628,-3.0701,-3.077,-3.0874,-3.0918,-3.0976,-3.098,-3.0994,-3.0998,-3.1001,-3.1,-3.0935,-3.099,-3.099,-3.099,-3.099,-3.099,0,-3.0109,-3.0157,-3.0218,-3.0301,-3.0355,-3.0377,-3.0444,-3.0487,-3.0552,-3.0614,-3.0673,-3.0755,-3.0825,-3.089,-3.0963,-3.0998,-3.1012,-3.1015,-3.1014,-3.1024,-3.0992,-3.0976,-3.1002,-3.1002,-3.1002,-3.1002,-3.1002,-3.1002,-3.0132,-3.0202,-3.0238,-3.0335,-3.0383,-3.0455,-3.0493,-3.0545,-3.0595,-3.0685,-3.0744,-3.0786,-3.0851,-3.0929,-3.0994,-3.1012,-3.1037,-3.1037,-3.1058,-3.1027,-3.1025,-3.1024,-3.101,-3.1042,-3.1042,-3.1086,-3.1086,-3.1086]}]]